SCP
-0 -0 0 0 0 0 0 0 0 0 0 0 0 0 0 0 0 0 0 0 0 0 0 0 0 0 0 0 -0 0 0 0 -0 -0 0 0 0 0 0 0 0 0 0
-0 -0 -0 0 0 0 0 0 0 0 0 0 0 0 0 0 0 0 0 0 0 0 0 0 0 0 -0 -0 0 -0 0 0 0 -0 0 1 0 0 0 0 0 0 0
-0 -0 -0 -0 0 0 0 0 0 0 0 0 0 0 0 0 0 0 0 0 0 0 0 0 0 0 0 0 0 0 0 0 1 0 0 1 1 0 0 0 0 0 0
-0 -0 -0 -0 -0 -0 -0 0 0 0 0 0 0 0 0 0 0 0 0 0 0 0 0 0 0 0 0 0 0 0 1 0 0 1 0 1 1 0 0 0 0 0 0
-0 -0 -0 -0 -0 -0 -0 -0 0 0 0 0 0 0 0 0 0 0 0 0 0 0 0 0 0 0 0 0 1 1 1 1 1 1 0 1 1 1 0 0 0 0 0
-0 -0 0 0 0 0 0 0 0 0 -0 0 -0 0 0 -0 0 0 0 0 0 0 0 0 0 1 0 0 0 0 0 1 1 1 0 0 2 1 1 0 0 0 0
0 0 0 0 0 0 0 0 0 0 0 0 0 0 -0 -0 0 0 0 0 0 0 0 0 0 0 0 0 0 0 0 0 0 1 1 1 1 1 1 1 1 1 0
0 0 0 0 0 0 0 0 0 0 0 0 0 0 0 0 0 0 0 0 0 0 0 0 0 0 1 1 1 1 1 1 1 1 1 1 1 1 2 2 1 1 1
0 0 0 0 0 0 0 0 -0 -0 0 0 0 0 0 1 0 0 0 0 1 0 0 1 1 1 1 0 1 1 1 1 1 1 1 1 1 0 1 3 2 2 1
0 0 0 0 0 0 0 0 0 0 0 0 1 1 2 1 0 0 0 0 0 0 0 0 0 0 0 0 0 0 0 0 0 1 1 1 0 1 0 1 2 2 2
1 1 1 1 0 0 0 0 0 0 1 1 1 1 1 1 0 0 0 0 0 0 0 0 0 0 0 0 0 0 0 0 0 0 1 1 1 1 2 1 1 3 2
1 1 1 1 1 1 1 1 1 1 2 2 2 1 0 0 0 0 0 0 0 0 0 0 0 0 0 0 0 0 0 0 0 0 0 1 1 2 2 1 1 2 2
1 1 1 2 2 3 2 2 2 3 2 1 1 1 0 0 0 0 0 0 0 0 0 0 0 0 0 0 0 0 0 0 0 0 0 0 1 1 1 1 1 1 1
1 2 1 2 4 2 3 4 4 3 3 2 1 0 0 0 0 0 0 0 0 0 0 0 0 0 0 0 0 0 0 0 0 0 0 1 1 1 1 2 1 1 1
2 2 3 1 1 1 1 3 2 2 1 1 0 0 0 0 0 0 0 0 0 0 0 0 0 0 0 0 0 0 0 0 0 0 0 0 0 0 1 1 1 1 1
2 2 2 2 1 0 0 0 0 0 0 0 0 0 0 0 0 0 0 0 0 0 0 0 0 0 0 0 0 0 0 0 0 0 0 0 0 0 0 1 1 1 1
2 2 1 0 1 1 0 0 0 0 0 0 0 0 0 0 0 0 0 0 0 0 0 0 0 0 0 0 0 0 0 0 0 0 0 0 0 0 0 0 0 1 0
1 1 2 1 1 0 0 0 0 0 0 0 0 0 0 0 0 0 0 0 0 0 0 0 0 0 0 0 0 0 0 0 0 0 0 0 0 0 0 0 0 0 0
0 0 1 0 1 0 0 0 0 0 0 0 0 0 0 0 0 0 0 0 0 0 0 0 0 0 0 0 0 0 -0 -0 0 0 0 0 0 0 0 0 0 0 0
0 0 0 0 0 0 0 0 0 0 0 0 0 0 0 0 0 0 0 0 0 0 0 0 0 0 0 0 0 0 0 -0 -0 -0 -0 0 0 0 0 0 0 0 0
0 0 0 0 0 0 0 0 0 0 0 0 0 0 0 0 0 0 0 0 0 0 0 0 0 0 0 0 0 0 0 0 0 0 -0 -0 -0 -0 0 -0 -0 -0 0
0 0 0 0 0 0 0 0 0 0 0 0 0 0 0 0 0 0 0 0 0 0 0 0 0 0 0 0 0 0 0 0 0 0 0 0 0 0 0 0 0 0 0
0 0 1 0 0 0 0 0 0 0 0 0 0 0 0 0 0 0 0 0 0 0 0 0 0 -0 0 -0 -0 -0 -0 0 0 -0 -0 -0 0 0 0 0 0 0 0
0 1 0 0 0 0 -0 0 0 0 0 0 0 0 0 0 0 0 0 0 0 0 0 0 0 0 0 0 0 0 0 0 0 0 0 -0 -0 0 -0 0 0 0 0
1 1 1 0 0 0 0 0 0 0 0 -0 0 0 0 0 0 0 0 0 0 0 0 0 0 0 0 0 0 0 0 0 0 0 0 0 0 0 0 0 0 0 0
1 0 0 0 1 0 0 0 0 0 0 0 0 0 0 0 0 0 0 0 0 0 0 0 0 0 0 0 0 0 0 0 0 0 0 0 0 0 0 0 0 0 0
Wind_Speed_500mb
41 37 34 33 34 39 35 34 39 36 34 35 29 24 21 20 19 20 17 16 14 16 15 17 18 20 17 22 21 21 23 24 29 26 23 22 25 24 28 31 37 37 40
32 34 34 34 35 35 36 34 40 40 39 32 32 26 23 22 22 21 20 15 16 17 18 21 22 22 28 26 29 29 34 28 31 34 29 31 28 30 30 33 37 38 31
30 32 33 34 36 37 37 38 36 38 38 33 35 32 26 25 23 23 26 26 23 23 24 26 26 25 27 25 29 28 29 28 35 31 32 32 27 36 33 32 38 40 45
32 35 37 38 37 37 39 39 39 42 42 36 35 35 33 32 28 27 27 28 29 29 28 28 28 28 29 30 33 35 35 34 33 34 34 37 34 39 37 37 39 41 46
34 35 39 39 40 38 41 38 35 37 38 38 36 36 35 33 32 33 33 33 32 31 30 30 29 33 36 35 34 36 39 40 38 40 36 38 38 42 44 36 41 40 42
40 38 40 40 39 38 37 37 35 36 40 44 45 43 40 34 36 30 30 29 31 33 34 33 35 37 42 43 42 43 42 47 44 43 44 47 43 47 43 32 39 31 42
39 37 37 36 35 35 36 38 38 40 38 41 38 36 36 32 35 32 34 36 36 35 37 36 37 37 41 41 45 47 50 51 53 51 55 53 52 52 47 46 45 38 44
41 40 37 35 35 36 37 39 40 40 41 40 37 35 32 28 31 34 33 36 42 42 41 39 40 40 39 45 50 45 47 47 52 56 61 60 55 53 55 54 49 48 40
43 44 40 38 36 37 39 40 38 38 37 38 35 31 31 40 36 39 37 35 29 37 44 48 49 51 54 63 67 65 63 54 52 59 62 60 55 54 55 56 56 54 50
45 46 44 42 41 39 39 41 41 41 35 30 31 33 38 43 37 36 35 35 35 42 45 50 57 59 62 63 63 64 57 58 50 49 54 57 57 61 64 64 62 66 66
33 43 48 47 47 45 42 43 44 40 33 35 35 41 41 42 38 36 34 34 37 43 46 46 41 59 70 69 70 72 71 63 54 53 48 47 49 49 44 52 61 66 71
28 37 49 52 53 52 51 49 47 42 42 42 41 40 36 39 36 27 29 31 34 38 42 46 53 57 51 54 58 59 62 61 60 59 57 52 46 48 48 45 48 55 63
24 28 39 50 57 60 61 60 54 55 50 47 43 37 35 27 22 22 25 26 28 29 35 47 51 44 42 39 39 38 37 38 44 43 42 47 50 46 42 45 41 46 52
29 26 32 44 57 62 62 69 70 68 65 57 45 39 30 22 16 13 19 18 21 27 34 39 34 32 35 35 30 27 28 28 30 30 39 33 39 31 35 36 38 32 34
18 27 42 47 57 61 64 62 62 67 67 62 53 41 36 32 28 15 14 16 18 21 26 28 32 33 35 31 26 26 26 26 24 26 28 35 35 35 32 30 33 33 36
19 22 26 30 43 50 55 60 54 46 47 39 36 38 40 34 22 16 11 12 14 16 17 25 30 37 34 27 24 23 23 22 22 22 20 24 27 29 31 30 33 33 34
27 22 26 28 27 31 33 41 53 47 41 32 41 45 38 32 25 17 9 8 10 14 14 18 20 28 32 34 27 20 20 21 20 21 20 23 27 29 25 19 24 32 37
25 24 21 27 29 31 34 36 33 40 41 43 47 39 29 20 16 12 13 7 5 12 10 12 14 17 25 27 34 35 23 21 17 13 16 17 19 20 23 28 29 31 32
29 30 30 30 33 39 37 42 42 40 41 51 52 40 27 20 17 14 13 9 8 7 10 10 9 11 15 16 20 32 37 28 24 20 18 17 15 17 20 21 25 30 33
34 43 40 28 29 42 43 44 37 36 44 44 38 35 27 28 24 17 16 12 10 9 11 6 7 7 9 11 13 18 25 30 34 37 34 28 24 21 17 16 18 21 24
31 31 35 35 34 32 29 36 45 45 41 37 34 30 29 29 21 22 20 17 13 13 10 6 6 4 7 8 9 13 17 22 25 26 24 28 23 23 23 23 25 22 18
30 31 32 35 35 36 33 38 46 50 43 36 29 28 34 30 25 23 23 22 19 17 12 8 5 3 2 5 7 7 12 15 16 17 18 18 19 20 23 20 19 18 20
35 36 40 36 39 41 47 50 49 35 33 33 29 31 34 31 26 25 23 23 24 21 18 10 7 4 5 4 7 8 11 10 11 12 14 16 16 14 16 17 16 16 19
35 41 35 37 42 45 48 52 53 38 31 32 33 32 28 27 24 24 23 23 23 21 18 13 10 8 10 8 10 12 12 10 11 12 14 11 13 16 14 15 15 16 14
35 42 39 42 53 40 46 53 45 38 38 43 36 31 27 20 20 19 19 18 17 13 11 9 9 11 13 21 23 21 25 26 25 24 24 19 20 20 19 18 21 23 23
35 40 44 41 56 53 51 47 44 46 39 34 30 29 27 25 22 20 18 18 13 13 17 25 30 30 33 37 36 36 37 37 35 34 32 37 35 28 29 31 30 32 34
Wind_Direction_500mb
209 213 215 214 215 217 216 220 213 215 221 232 235 235 235 232 241 243 239 246 265 261 251 258 257 254 264 265 248 253 256 254 258 262 266 265 263 265 264 253 251 253 260
208 209 212 215 212 216 216 219 218 220 225 226 233 238 237 231 241 244 255 244 257 259 264 259 271 265 269 267 268 245 243 248 259 264 257 252 267 264 275 267 253 254 237
202 205 210 214 219 218 221 220 219 221 226 229 232 234 234 233 237 246 257 254 252 257 262 258 257 257 258 258 260 266 268 275 264 262 266 266 250 264 267 265 258 251 257
207 206 212 220 221 222 221 224 223 226 229 231 232 236 239 243 248 252 252 251 256 260 258 255 258 258 258 256 259 260 257 256 262 264 266 267 261 271 260 262 262 260 264
223 219 222 228 232 227 225 224 222 224 226 228 233 237 239 242 250 253 246 248 253 259 260 260 264 263 260 260 260 265 261 262 257 256 255 264 269 260 278 267 265 267 268
223 223 222 229 233 233 229 223 219 223 225 230 236 240 244 247 249 248 244 251 261 265 266 264 265 265 265 268 266 270 269 265 262 259 261 260 259 258 262 259 262 256 266
213 215 221 223 227 230 225 220 221 225 224 229 233 238 243 244 247 252 256 262 265 268 271 271 273 272 272 267 271 265 264 261 263 266 263 262 264 261 257 257 251 254 266
214 213 217 222 223 222 219 216 214 215 218 223 227 230 236 243 254 263 264 269 273 275 273 275 274 273 271 267 266 268 266 264 259 255 258 263 265 270 262 263 256 262 258
217 217 216 219 219 219 214 210 208 208 211 215 219 224 232 248 263 266 267 267 269 275 279 279 277 276 273 271 272 269 266 261 256 260 254 254 260 263 264 263 255 255 253
216 220 218 217 217 218 219 215 211 213 212 218 227 230 239 259 265 263 267 269 277 286 289 294 293 293 282 278 273 271 272 270 263 258 260 262 263 255 255 253 253 253 254
233 219 219 218 217 218 216 214 215 214 211 214 225 245 247 253 258 262 267 275 285 292 296 298 294 283 290 288 282 276 269 260 256 265 262 259 258 255 256 252 251 249 250
236 224 218 220 218 218 218 217 217 214 216 229 237 245 246 249 255 265 277 285 294 302 308 307 299 298 294 291 286 279 272 266 257 259 261 253 254 251 257 259 257 256 254
254 240 228 220 217 217 217 218 215 219 222 228 227 229 239 248 258 263 279 294 305 317 325 323 314 303 307 310 310 307 290 263 258 261 259 259 259 264 260 262 261 255 257
258 248 235 225 219 218 216 218 222 222 218 213 212 211 198 191 205 253 283 294 313 333 338 339 335 325 317 310 318 309 297 286 267 263 256 262 263 255 262 259 258 258 266
266 241 239 234 229 225 229 215 219 217 219 215 216 201 186 182 186 221 258 284 308 331 340 358 357 337 314 310 309 303 297 296 287 278 264 263 268 266 263 262 255 261 266
285 241 245 233 236 236 231 232 225 217 207 198 207 200 194 192 199 183 237 274 304 331 342 350 1 1 349 327 317 316 313 292 290 296 287 282 279 280 274 264 262 264 268
269 247 248 247 233 231 223 218 205 188 188 213 217 201 198 227 190 184 213 258 302 330 351 332 345 360 1 5 355 340 329 319 309 308 298 295 286 276 273 267 269 271 273
265 254 238 248 243 228 212 202 199 208 216 210 192 185 184 181 181 161 193 239 311 337 312 316 345 339 349 9 17 21 3 352 340 334 326 313 307 310 298 274 275 276 277
250 247 253 250 235 226 221 225 226 218 201 190 183 182 179 176 181 184 202 202 222 254 276 290 319 332 339 6 13 27 30 24 21 22 13 350 327 323 318 312 302 298 290
242 245 238 233 229 236 225 212 209 199 185 180 182 182 172 184 187 199 215 221 226 247 262 292 306 318 328 358 18 31 28 36 42 45 39 30 21 13 3 344 327 313 304
236 241 239 222 224 224 222 219 210 193 182 175 186 179 194 192 193 204 217 234 228 239 253 255 273 302 350 348 18 27 31 17 22 32 30 34 37 35 27 30 30 24 6
228 224 223 217 223 213 212 197 189 183 177 187 189 195 219 204 215 219 222 228 242 242 240 236 227 264 341 7 9 21 35 25 24 35 33 31 23 13 10 9 11 4 17
223 220 230 221 218 212 198 190 184 184 190 197 197 204 209 211 222 228 232 231 234 236 234 226 234 236 280 343 358 10 26 8 16 29 24 13 13 7 7 358 356 347 342
224 218 214 209 205 198 194 193 193 190 192 195 201 206 208 212 225 227 223 223 223 225 225 222 229 236 261 297 306 336 311 317 337 343 351 350 349 343 340 332 329 321 326
215 207 203 197 190 186 196 193 191 185 189 202 204 206 206 201 196 188 183 195 206 208 225 230 242 258 263 256 266 274 286 295 294 298 305 302 302 302 300 299 301 298 297
209 199 195 196 192 194 188 184 194 188 192 199 201 194 188 185 181 182 184 196 202 212 209 228 248 255 262 267 273 276 279 282 286 291 292 292 288 283 285 287 286 283 287
Wind_Speed_850mb
41 37 34 33 34 39 35 34 39 36 34 35 29 24 21 20 19 20 17 16 14 16 15 17 18 20 17 22 21 21 23 24 29 26 23 22 25 24 28 31 37 37 40
32 34 34 34 35 35 36 34 40 40 39 32 32 26 23 22 22 21 20 15 16 17 18 21 22 22 28 26 29 29 34 28 31 34 29 31 28 30 30 33 37 38 31
30 32 33 34 36 37 37 38 36 38 38 33 35 32 26 25 23 23 26 26 23 23 24 26 26 25 27 25 29 28 29 28 35 31 32 32 27 36 33 32 38 40 45
32 35 37 38 37 37 39 39 39 42 42 36 35 35 33 32 28 27 27 28 29 29 28 28 28 28 29 30 33 35 35 34 33 34 34 37 34 39 37 37 39 41 46
34 35 39 39 40 38 41 38 35 37 38 38 36 36 35 33 32 33 33 33 32 31 30 30 29 33 36 35 34 36 39 40 38 40 36 38 38 42 44 36 41 40 42
40 38 40 40 39 38 37 37 35 36 40 44 45 43 40 34 36 30 30 29 31 33 34 33 35 37 42 43 42 43 42 47 44 43 44 47 43 47 43 32 39 31 42
39 37 37 36 35 35 36 38 38 40 38 41 38 36 36 32 35 32 34 36 36 35 37 36 37 37 41 41 45 47 50 51 53 51 55 53 52 52 47 46 45 38 44
41 40 37 35 35 36 37 39 40 40 41 40 37 35 32 28 31 34 33 36 42 42 41 39 40 40 39 45 50 45 47 47 52 56 61 60 55 53 55 54 49 48 40
43 44 40 38 36 37 39 40 38 38 37 38 35 31 31 40 36 39 37 35 29 37 44 48 49 51 54 63 67 65 63 54 52 59 62 60 55 54 55 56 56 54 50
45 46 44 42 41 39 39 41 41 41 35 30 31 33 38 43 37 36 35 35 35 42 45 50 57 59 62 63 63 64 57 58 50 49 54 57 57 61 64 64 62 66 66
33 43 48 47 47 45 42 43 44 40 33 35 35 41 41 42 38 36 34 34 37 43 46 46 41 59 70 69 70 72 71 63 54 53 48 47 49 49 44 52 61 66 71
28 37 49 52 53 52 51 49 47 42 42 42 41 40 36 39 36 27 29 31 34 38 42 46 53 57 51 54 58 59 62 61 60 59 57 52 46 48 48 45 48 55 63
24 28 39 50 57 60 61 60 54 55 50 47 43 37 35 27 22 22 25 26 28 29 35 47 51 44 42 39 39 38 37 38 44 43 42 47 50 46 42 45 41 46 52
29 26 32 44 57 62 62 69 70 68 65 57 45 39 30 22 16 13 19 18 21 27 34 39 34 32 35 35 30 27 28 28 30 30 39 33 39 31 35 36 38 32 34
18 27 42 47 57 61 64 62 62 67 67 62 53 41 36 32 28 15 14 16 18 21 26 28 32 33 35 31 26 26 26 26 24 26 28 35 35 35 32 30 33 33 36
19 22 26 30 43 50 55 60 54 46 47 39 36 38 40 34 22 16 11 12 14 16 17 25 30 37 34 27 24 23 23 22 22 22 20 24 27 29 31 30 33 33 34
27 22 26 28 27 31 33 41 53 47 41 32 41 45 38 32 25 17 9 8 10 14 14 18 20 28 32 34 27 20 20 21 20 21 20 23 27 29 25 19 24 32 37
25 24 21 27 29 31 34 36 33 40 41 43 47 39 29 20 16 12 13 7 5 12 10 12 14 17 25 27 34 35 23 21 17 13 16 17 19 20 23 28 29 31 32
29 30 30 30 33 39 37 42 42 40 41 51 52 40 27 20 17 14 13 9 8 7 10 10 9 11 15 16 20 32 37 28 24 20 18 17 15 17 20 21 25 30 33
34 43 40 28 29 42 43 44 37 36 44 44 38 35 27 28 24 17 16 12 10 9 11 6 7 7 9 11 13 18 25 30 34 37 34 28 24 21 17 16 18 21 24
31 31 35 35 34 32 29 36 45 45 41 37 34 30 29 29 21 22 20 17 13 13 10 6 6 4 7 8 9 13 17 22 25 26 24 28 23 23 23 23 25 22 18
30 31 32 35 35 36 33 38 46 50 43 36 29 28 34 30 25 23 23 22 19 17 12 8 5 3 2 5 7 7 12 15 16 17 18 18 19 20 23 20 19 18 20
35 36 40 36 39 41 47 50 49 35 33 33 29 31 34 31 26 25 23 23 24 21 18 10 7 4 5 4 7 8 11 10 11 12 14 16 16 14 16 17 16 16 19
35 41 35 37 42 45 48 52 53 38 31 32 33 32 28 27 24 24 23 23 23 21 18 13 10 8 10 8 10 12 12 10 11 12 14 11 13 16 14 15 15 16 14
35 42 39 42 53 40 46 53 45 38 38 43 36 31 27 20 20 19 19 18 17 13 11 9 9 11 13 21 23 21 25 26 25 24 24 19 20 20 19 18 21 23 23
35 40 44 41 56 53 51 47 44 46 39 34 30 29 27 25 22 20 18 18 13 13 17 25 30 30 33 37 36 36 37 37 35 34 32 37 35 28 29 31 30 32 34
Wind_Direction_850mb
209 213 215 214 215 217 216 220 213 215 221 232 235 235 235 232 241 243 239 246 265 261 251 258 257 254 264 265 248 253 256 254 258 262 266 265 263 265 264 253 251 253 260
208 209 212 215 212 216 216 219 218 220 225 226 233 238 237 231 241 244 255 244 257 259 264 259 271 265 269 267 268 245 243 248 259 264 257 252 267 264 275 267 253 254 237
202 205 210 214 219 218 221 220 219 221 226 229 232 234 234 233 237 246 257 254 252 257 262 258 257 257 258 258 260 266 268 275 264 262 266 266 250 264 267 265 258 251 257
207 206 212 220 221 222 221 224 223 226 229 231 232 236 239 243 248 252 252 251 256 260 258 255 258 258 258 256 259 260 257 256 262 264 266 267 261 271 260 262 262 260 264
223 219 222 228 232 227 225 224 222 224 226 228 233 237 239 242 250 253 246 248 253 259 260 260 264 263 260 260 260 265 261 262 257 256 255 264 269 260 278 267 265 267 268
223 223 222 229 233 233 229 223 219 223 225 230 236 240 244 247 249 248 244 251 261 265 266 264 265 265 265 268 266 270 269 265 262 259 261 260 259 258 262 259 262 256 266
213 215 221 223 227 230 225 220 221 225 224 229 233 238 243 244 247 252 256 262 265 268 271 271 273 272 272 267 271 265 264 261 263 266 263 262 264 261 257 257 251 254 266
214 213 217 222 223 222 219 216 214 215 218 223 227 230 236 243 254 263 264 269 273 275 273 275 274 273 271 267 266 268 266 264 259 255 258 263 265 270 262 263 256 262 258
217 217 216 219 219 219 214 210 208 208 211 215 219 224 232 248 263 266 267 267 269 275 279 279 277 276 273 271 272 269 266 261 256 260 254 254 260 263 264 263 255 255 253
216 220 218 217 217 218 219 215 211 213 212 218 227 230 239 259 265 263 267 269 277 286 289 294 293 293 282 278 273 271 272 270 263 258 260 262 263 255 255 253 253 253 254
233 219 219 218 217 218 216 214 215 214 211 214 225 245 247 253 258 262 267 275 285 292 296 298 294 283 290 288 282 276 269 260 256 265 262 259 258 255 256 252 251 249 250
236 224 218 220 218 218 218 217 217 214 216 229 237 245 246 249 255 265 277 285 294 302 308 307 299 298 294 291 286 279 272 266 257 259 261 253 254 251 257 259 257 256 254
254 240 228 220 217 217 217 218 215 219 222 228 227 229 239 248 258 263 279 294 305 317 325 323 314 303 307 310 310 307 290 263 258 261 259 259 259 264 260 262 261 255 257
258 248 235 225 219 218 216 218 222 222 218 213 212 211 198 191 205 253 283 294 313 333 338 339 335 325 317 310 318 309 297 286 267 263 256 262 263 255 262 259 258 258 266
266 241 239 234 229 225 229 215 219 217 219 215 216 201 186 182 186 221 258 284 308 331 340 358 357 337 314 310 309 303 297 296 287 278 264 263 268 266 263 262 255 261 266
285 241 245 233 236 236 231 232 225 217 207 198 207 200 194 192 199 183 237 274 304 331 342 350 1 1 349 327 317 316 313 292 290 296 287 282 279 280 274 264 262 264 268
269 247 248 247 233 231 223 218 205 188 188 213 217 201 198 227 190 184 213 258 302 330 351 332 345 360 1 5 355 340 329 319 309 308 298 295 286 276 273 267 269 271 273
265 254 238 248 243 228 212 202 199 208 216 210 192 185 184 181 181 161 193 239 311 337 312 316 345 339 349 9 17 21 3 352 340 334 326 313 307 310 298 274 275 276 277
250 247 253 250 235 226 221 225 226 218 201 190 183 182 179 176 181 184 202 202 222 254 276 290 319 332 339 6 13 27 30 24 21 22 13 350 327 323 318 312 302 298 290
242 245 238 233 229 236 225 212 209 199 185 180 182 182 172 184 187 199 215 221 226 247 262 292 306 318 328 358 18 31 28 36 42 45 39 30 21 13 3 344 327 313 304
236 241 239 222 224 224 222 219 210 193 182 175 186 179 194 192 193 204 217 234 228 239 253 255 273 302 350 348 18 27 31 17 22 32 30 34 37 35 27 30 30 24 6
228 224 223 217 223 213 212 197 189 183 177 187 189 195 219 204 215 219 222 228 242 242 240 236 227 264 341 7 9 21 35 25 24 35 33 31 23 13 10 9 11 4 17
223 220 230 221 218 212 198 190 184 184 190 197 197 204 209 211 222 228 232 231 234 236 234 226 234 236 280 343 358 10 26 8 16 29 24 13 13 7 7 358 356 347 342
224 218 214 209 205 198 194 193 193 190 192 195 201 206 208 212 225 227 223 223 223 225 225 222 229 236 261 297 306 336 311 317 337 343 351 350 349 343 340 332 329 321 326
215 207 203 197 190 186 196 193 191 185 189 202 204 206 206 201 196 188 183 195 206 208 225 230 242 258 263 256 266 274 286 295 294 298 305 302 302 302 300 299 301 298 297
209 199 195 196 192 194 188 184 194 188 192 199 201 194 188 185 181 182 184 196 202 212 209 228 248 255 262 267 273 276 279 282 286 291 292 292 288 283 285 287 286 283 287